Simultaneous Nadir Overpasses (SNOs) Predictions

Prediction of SNOs between GOES-16 and AQUA Satellite Orbit:

Table of predicted SNOs for the next 14.0 days since TLE Epoch: 9/13/2019
Index Date Time (GOES-16) GOES-16 Lat,Lon AQUA Lat,Lon Distance(km) Time Diff (sec)
1 09/14/2019 06:44:13 0.01, -75.19 0.37, -76.81 184.51 80
2 09/16/2019 06:29:23 0.01, -75.19 -0.29, -73.86 151.71 80
3 09/16/2019 18:50:48 -0.01, -75.20 -0.82, -79.06 438.74 80
4 09/18/2019 06:17:12 0.01, -75.20 -0.88, -70.90 488.32 80
5 09/18/2019 18:38:37 -0.01, -75.21 -0.22, -76.10 102.05 80
6 09/20/2019 18:29:07 -0.01, -75.22 0.44, -73.15 234.91 80
7 09/21/2019 06:50:22 0.01, -75.22 0.67, -78.31 350.85 80
8 09/23/2019 06:38:12 0.01, -75.23 0.01, -75.36 14.13 80
9 09/25/2019 06:23:21 0.01, -75.25 -0.60, -72.40 323.74 80
10 09/25/2019 18:44:46 -0.02, -75.25 -0.50, -77.60 266.55 80
11 09/27/2019 18:35:15 -0.02, -75.27 0.11, -74.64 71.78 80




NCC Satellite Simultaneous Nadir Overpasses (SNOs) Prediction Service
